Location: Härggis
(46.9540°N, 8.4897°E)
Time: 20:54:08
(UTC+00:00)

Meteor 2-5 Rocket - Pass Details

Date: 27 May 2022
Orbit: 832 x 912 km, 81.2° (Epoch: 03 July)

Event Time Altitude Azimuth Distance (km) Brightness Sun altitude
Exits shadow 00:50:33 31° 178° (S) 1,490 4.5 -19.0°
Maximum altitude 00:53:26 76° 98° (E) 899 3.8 -18.8°
Drops below altitude 10° 00:59:06 10° 14° (NNE) 2,501 7.4 -18.4°
Sets 01:01:30 0° 13° (NNE) 3,430 8.4 -18.3°
